Notices

What's New in latest Release from April 7th, 2021:

- Updated Glossary, including Speed of Maximum Gust, and Total Hourly Precipitation

- Updated national and regional climate services offices contacts and prices information

- Addition of station inventory lists for 1981-2010, 1971-2000, and 1961-1990 Normals.

If you haven't already, please take our survey and provide feedback about our website: https://eccc.sondage-survey.ca/f/LanguageSelection.aspx?s=442ca660-fcf1-47c0-95a9-59707d6fd709

Hourly Data Report for April 12, 2021

CORNER BROOK
NEWFOUNDLAND
Current Station Operator: ECCC - MSC

48°56'00.000" N
57°55'00.000" W
151.80 m
8401298
71973
WKB

Download Data

Hourly Data (April 2021)
Hourly Data Report for April 12, 2021
TIME
LST
Temp Definition
°C
Dew Point Definition
°C
Rel Hum Definition
%
Precip. Amount Definition
mm

Wind Dir Definition
10's deg

Wind Spd Definition
km/h
Visibility Definition
km
Stn Press Definition
kPa
Hmdx Definition


Wind Chill Definition


Weather Definition


00:30 5.0 3.6 91 1.1 5 20   99.11     LegendNANA
01:30 4.7 3.3 91 0.0 6 19   99.17     LegendNANA
02:30 4.2 2.9 91 0.7 5 16   99.22     LegendNANA
03:30 3.8 2.7 92 0.0 5 13   99.32     LegendNANA
04:30 3.2 2.1 92 0.0 5 18   99.39     LegendNANA
05:30 3.0 1.8 92 0.9 4 20   99.43     LegendNANA
06:30 2.8 1.6 92 0.8 6 19   99.48     LegendNANA
07:30 2.6 1.5 92 0.0 7 19   99.52     LegendNANA
08:30 2.9 1.8 92 0.0 7 18   99.52     LegendNANA
09:30 3.3 2.0 92 0.0 8 19   99.50     LegendNANA
10:30 3.8 2.4 91 0.6 8 21   99.47     LegendNANA
11:30 4.3 2.6 89 0.0 8 22   99.40     LegendNANA
12:30 5.1 2.9 86 0.0 7 25   99.39     LegendNANA
13:30 5.5 3.0 84 0.0 7 20   99.36     LegendNANA
14:30 5.0 2.5 83 0.0 7 25   99.37     LegendNANA
15:30 4.5 2.4 86 0.0 6 16   99.37     LegendNANA
16:30 4.0 2.3 88 1.1 6 17   99.39     LegendNANA
17:30 3.8 2.3 90 0.6 7 14   99.40     LegendNANA
18:30 3.4 2.0 90 1.1 6 16   99.41     LegendNANA
19:30 2.9 1.4 90 0.0 6 16   99.46     LegendNANA
20:30 2.4 1.1 91 0.0 6 20   99.54     LegendNANA
21:30 2.3 1.1 92 0.0 7 13   99.54     LegendNANA
22:30 2.4 1.2 92 0.6 7 15   99.58     LegendNANA
23:30 2.4 1.3 92 0.0 6 26   99.61     LegendNANA

Notes on Data Quality.

Legend

  • E = Estimated
  • M = Missing
  • NA = Not Available*
  • [empty] = Indicates an unobserved value
Date modified: